SCP
0 0 0 0 0 0 0 0 0 0 0 0 0 0 0 0 0 0 0 0 0 0 0 0 0 0 0 0 0 0 0 0 0 0 0 0 0 0
0 0 0 0 0 0 0 0 0 0 0 0 0 0 0 0 0 0 0 0 0 0 0 0 0 0 0 0 0 0 0 0 0 0 0 0 0 0
0 0 0 0 0 0 0 0 0 0 0 0 0 0 0 0 0 0 0 0 0 0 0 0 0 0 0 0 0 0 0 0 0 0 0 0 0 0
0 0 0 0 0 0 0 0 0 0 0 0 0 0 0 0 0 0 0 0 0 0 0 0 0 0 0 0 0 0 0 0 0 0 0 0 0 0
0 0 0 0 0 0 0 0 0 0 0 0 0 0 0 0 0 0 0 0 0 0 0 0 0 0 0 0 0 0 0 0 0 0 0 0 0 0
0 0 0 0 0 0 0 0 0 0 0 0 0 0 0 0 0 0 0 0 0 0 0 0 0 0 0 0 0 0 0 0 0 0 0 0 0 0
0 0 0 0 0 0 0 0 0 0 0 0 0 0 0 0 0 0 0 0 0 0 0 0 0 0 0 0 0 0 0 0 0 0 0 0 0 0
0 0 0 0 0 0 0 0 0 0 0 0 0 0 0 0 0 0 0 0 0 0 0 0 0 0 0 0 0 0 0 0 0 0 0 0 0 0
0 0 0 0 0 0 0 0 0 0 0 0 0 0 0 0 0 0 0 0 0 0 0 0 0 0 0 0 0 0 0 0 0 0 0 0 0 0
0 0 0 0 0 0 0 0 0 0 0 0 0 0 0 0 0 0 0 0 0 0 0 0 0 0 0 0 0 0 0 0 0 0 0 0 0 0
0 0 0 0 0 0 0 0 0 0 0 0 0 0 0 0 0 0 0 0 0 0 0 0 0 0 0 0 0 0 0 0 0 0 0 0 0 0
0 0 0 0 0 0 0 0 0 0 0 0 0 0 0 0 0 0 0 0 0 0 0 0 0 0 0 0 0 0 0 0 0 0 0 0 0 0
0 0 0 0 0 0 0 0 0 0 0 0 0 0 0 0 0 0 0 0 0 0 0 0 0 0 0 0 0 0 0 0 0 0 0 0 0 0
0 0 0 0 0 0 0 0 0 0 0 0 0 0 0 0 0 0 0 0 0 0 0 0 0 0 0 0 0 0 0 0 0 0 0 0 0 0
0 0 0 0 0 0 0 0 0 0 0 0 0 0 0 0 0 0 0 0 0 0 0 0 0 0 0 0 0 0 0 0 0 0 0 0 0 0
0 0 0 0 0 0 0 0 0 0 0 0 0 0 0 0 0 0 0 0 0 0 0 0 0 0 0 0 0 0 0 0 0 0 0 0 0 0
0 0 0 0 0 0 0 0 0 0 0 0 0 0 0 0 0 0 0 0 0 0 0 0 0 0 0 0 0 0 0 0 0 0 0 0 0 0
0 0 0 0 0 0 0 0 0 0 0 0 0 0 0 0 0 0 0 0 0 0 0 0 0 0 0 0 0 0 0 0 0 0 0 0 0 0
0 0 0 0 0 0 0 0 0 0 0 0 0 0 0 0 0 0 0 0 0 0 0 0 0 0 0 0 0 0 0 0 0 0 0 0 0 0
0 0 0 0 0 0 0 0 0 0 0 0 0 0 0 0 0 0 0 0 0 0 0 0 0 0 0 0 0 0 0 0 0 0 0 0 0 0
0 0 0 0 0 0 0 0 0 0 0 0 0 0 0 0 0 0 0 0 0 0 0 0 0 0 0 0 0 0 0 0 0 0 0 0 0 0
0 0 0 0 0 0 0 0 0 0 0 0 0 0 0 0 0 0 0 0 0 0 0 0 0 0 0 0 0 0 0 0 0 0 0 0 0 0
0 0 0 0 0 0 0 0 0 0 0 0 0 0 0 0 0 0 0 0 0 0 0 0 0 0 0 0 0 0 0 0 0 0 0 0 0 0
Wind_Speed
2 2 1 2 2 2 2 1 1 2 2 2 2 4 3 3 7 5 5 10 12 12 11 10 9 8 7 6 4 1 1 3 5 8 11 14 14 13
2 3 3 2 2 2 2 2 1 1 1 1 2 2 4 4 7 5 5 10 12 13 13 12 11 10 8 7 6 4 3 2 4 6 8 11 12 11
3 3 4 3 2 3 2 2 2 1 1 1 2 3 4 4 4 4 4 4 5 12 13 12 12 11 11 10 9 7 6 4 3 4 5 7 8 8
3 3 3 3 3 3 2 3 2 2 1 0 1 2 3 3 3 3 3 4 4 9 11 12 11 11 11 11 11 10 10 9 7 5 4 3 4 4
4 4 4 4 4 3 3 3 2 2 2 1 1 1 1 2 2 3 3 3 4 6 9 10 10 11 11 11 11 10 9 8 7 6 6 4 2 0
6 6 6 5 4 4 3 4 3 3 2 2 1 1 1 2 2 3 3 3 3 3 5 6 7 8 8 9 9 9 9 7 6 4 3 2 2 2
5 5 5 6 7 5 4 4 4 3 2 2 1 1 2 2 2 2 3 3 2 3 3 3 3 3 3 5 6 7 6 6 5 4 3 2 2 4
4 3 4 4 6 7 8 7 6 4 2 2 1 1 1 2 2 2 2 3 3 3 3 3 2 2 1 1 4 6 6 5 5 4 4 5 5 6
3 2 2 3 4 2 3 5 6 7 6 2 2 2 1 2 2 2 2 2 2 3 2 3 3 2 2 1 3 4 4 4 4 5 5 6 7 8
2 2 2 2 2 2 2 2 2 2 3 3 3 2 2 2 2 1 1 2 3 2 1 1 3 3 3 2 1 1 2 4 4 6 7 7 8 9
2 1 1 1 2 2 1 1 1 0 2 2 1 0 2 3 2 2 2 3 2 2 2 1 2 3 3 3 2 2 3 5 6 6 7 8 8 8
2 2 2 2 0 1 1 1 1 1 1 0 1 2 2 1 1 1 1 1 0 2 2 2 2 3 4 3 2 2 3 6 7 7 8 9 9 4
2 2 2 3 2 2 1 1 1 0 1 1 2 2 1 1 0 1 2 2 2 2 1 2 1 2 2 4 4 3 2 2 2 4 8 10 11 8
2 2 3 5 3 3 2 3 3 2 1 2 2 2 1 1 1 0 0 1 3 4 3 1 2 2 1 3 4 3 3 3 3 3 3 7 9 12
3 4 5 5 4 3 5 6 3 1 2 2 2 2 2 2 1 1 2 3 4 5 5 5 4 3 3 4 4 4 4 4 4 4 3 3 3 4
3 5 7 7 6 6 5 4 3 3 3 2 2 2 1 1 2 2 2 2 3 4 4 5 6 5 4 6 7 8 5 5 4 3 4 5 5 5
4 2 2 2 3 3 3 4 4 3 3 2 2 2 2 2 2 2 2 2 2 4 4 3 4 5 7 6 7 9 8 8 7 6 5 7 7 6
6 3 4 4 4 4 4 4 3 4 4 3 3 3 3 3 3 2 2 3 4 5 5 4 3 3 3 7 12 10 8 7 6 6 5 7 9 6
6 4 5 5 5 4 4 4 4 4 4 4 4 4 4 4 4 4 4 4 5 5 5 4 3 3 6 8 6 9 7 5 4 5 5 6 9 7
5 6 6 5 5 5 5 5 4 4 4 4 4 4 4 4 4 5 5 5 6 6 6 4 4 5 7 7 6 6 7 7 6 8 7 7 9 13
7 7 6 6 5 5 5 5 5 5 5 4 5 5 5 5 5 6 5 9 8 6 8 7 6 10 6 5 8 8 5 10 12 8 7 7 9 9
7 7 6 6 6 6 5 5 5 5 5 5 5 5 5 5 6 7 6 7 7 7 8 7 5 5 5 8 11 12 11 8 11 19 21 18 9 6
7 6 6 6 6 5 5 6 7 6 6 6 6 6 5 6 6 7 7 7 7 8 8 8 6 6 8 9 10 11 13 12 9 9 10 16 23 27
Wind_Direction
354 356 12 23 23 11 359 339 235 250 251 93 82 45 42 48 30 27 21 19 19 18 16 13 10 8 9 7 5 27 169 182 187 194 193 190 194 199
26 42 46 39 35 21 9 7 9 242 242 73 77 51 44 38 31 25 22 26 24 25 28 28 26 24 20 21 35 48 60 136 172 176 184 187 190 196
53 63 58 49 47 28 20 27 31 26 244 85 77 50 49 33 13 16 24 24 17 25 27 30 32 33 33 38 40 44 49 69 116 151 171 176 182 192
67 69 62 65 61 43 39 42 36 28 32 85 62 45 43 28 10 15 25 26 17 21 25 29 32 34 36 38 39 44 52 57 63 74 108 142 171 191
63 63 52 58 57 45 47 41 27 29 42 75 68 52 38 16 9 11 29 23 12 16 22 25 30 37 39 41 41 41 44 50 55 56 55 53 57 198
67 61 54 56 53 43 48 30 24 35 50 68 76 64 41 4 32 11 2 6 359 8 11 11 19 29 34 39 40 38 35 34 37 41 43 32 359 317
80 73 65 66 64 60 59 37 34 44 53 60 68 59 42 27 18 357 351 337 1 19 358 346 356 8 17 26 32 24 18 14 10 4 350 322 295 283
96 87 84 64 65 64 66 60 56 59 55 37 47 66 51 28 16 5 2 9 338 350 6 326 343 357 343 39 14 7 358 348 338 326 314 304 293 284
101 96 96 88 63 47 59 65 58 56 54 61 68 59 57 32 30 7 9 356 288 295 3 321 333 338 310 343 5 356 345 335 327 318 306 295 288 282
113 112 109 108 83 64 58 54 57 67 57 58 74 60 63 42 29 344 307 319 298 298 73 320 321 324 319 316 264 343 338 332 324 314 306 298 288 281
168 154 114 111 99 71 49 346 327 212 138 123 102 344 343 349 4 27 17 25 343 332 19 16 323 326 321 316 262 249 282 296 306 310 307 300 290 284
197 193 171 153 148 19 15 350 6 18 50 334 296 287 273 286 1 100 121 115 322 309 344 25 352 358 332 314 323 316 305 297 300 303 302 297 290 286
187 193 195 190 227 277 283 268 247 318 336 295 280 272 251 217 165 114 117 146 180 245 319 45 357 344 301 302 308 306 303 297 309 301 300 296 289 278
197 194 192 195 225 258 262 259 273 300 294 286 279 273 245 204 174 159 232 223 214 230 254 186 218 228 281 293 286 299 309 298 292 286 281 292 293 288
202 209 208 218 236 258 258 255 261 257 255 261 263 256 224 202 195 258 275 261 258 253 243 216 207 222 220 246 274 288 306 292 279 278 278 268 263 267
223 233 238 242 241 244 254 254 231 224 227 234 251 253 232 211 225 229 248 272 288 285 260 226 209 208 234 246 259 270 266 274 286 282 283 277 263 250
194 195 205 220 226 230 230 227 221 226 236 228 239 251 253 249 247 233 228 230 250 275 291 276 233 220 226 236 258 261 264 263 263 269 270 275 267 251
208 204 218 221 224 225 225 222 218 219 218 215 220 230 242 248 256 251 237 237 253 263 268 272 268 272 262 251 235 252 258 261 263 258 254 268 276 260
220 216 221 223 224 221 218 217 222 222 213 211 217 224 231 240 246 252 252 252 258 262 261 254 245 246 269 280 272 236 237 255 266 266 257 257 271 275
219 221 223 222 220 218 217 218 222 221 215 217 219 224 226 234 244 249 249 251 260 267 268 255 241 237 247 263 270 269 243 250 262 270 272 270 270 277
222 223 222 220 218 216 216 216 216 218 218 217 223 225 226 231 243 248 251 260 263 263 265 263 249 256 257 254 263 266 252 249 253 255 263 272 279 277
223 222 220 218 216 215 214 214 218 222 223 226 228 228 227 229 241 246 248 253 256 257 263 268 260 255 244 252 263 274 281 273 264 267 265 256 255 258
222 221 219 215 214 211 212 216 221 226 225 226 229 229 227 233 239 244 248 250 255 259 265 272 269 257 255 256 264 270 275 279 279 275 266 259 258 259